This is the latest recevied weather packets stored in our database for station/object NE1CU. If no packets are shown the sender has not sent any weather packets the latest 10 day(s).
| Time | Temp. | Humidity | Pressure | Rain* | Wind** | Luminosity | Snow |
|---|---|---|---|---|---|---|---|
| 1777941695 | 13.89° C | 68% | 1010.5 hPa | 0 mm | - | 0 W/m² | - |
| 1777941392 | 13.89° C | 68% | 1010.5 hPa | 0 mm | - | 0 W/m² | - |
| 1777941090 | 13.89° C | 68% | 1010.5 hPa | 0 mm | - | 0 W/m² | - |
| 1777940786 | 13.89° C | 67% | 1010.4 hPa | 0 mm | - | 0 W/m² | - |
| 1777940484 | 13.89° C | 66% | 1010.4 hPa | 0 mm | - | 0 W/m² | - |
| 1777940181 | 13.89° C | 65% | 1010.1 hPa | 0 mm | - | 0 W/m² | - |
| 1777939879 | 13.89° C | 65% | 1010.3 hPa | 0 mm | - | 0 W/m² | - |
| 1777939575 | 13.89° C | 64% | 1010.1 hPa | 0 mm | - | 1 W/m² | - |
| 1777939273 | 14.44° C | 64% | 1009.9 hPa | 0 mm | - | 1 W/m² | - |
| 1777938969 | 14.44° C | 63% | 1009.9 hPa | 0 mm | - | 2 W/m² | - |
| 1777938666 | 14.44° C | 62% | 1010 hPa | 0 mm | - | 4 W/m² | - |
| 1777938363 | 14.44° C | 62% | 1009.7 hPa | 0 mm | - | 7 W/m² | - |
| 1777938060 | 15° C | 61% | 1009.7 hPa | 0 mm | - | 10 W/m² | - |
| 1777937755 | 15° C | 60% | 1009.7 hPa | 0 mm | - | 13 W/m² | - |
| 1777937452 | 15° C | 59% | 1009.8 hPa | 0 mm | - | 17 W/m² | - |
| 1777937149 | 15.56° C | 59% | 1009.6 hPa | 0 mm | - | 20 W/m² | - |
| 1777936847 | 15.56° C | 57% | 1009.3 hPa | 0 mm | - | 24 W/m² | - |
| 1777936543 | 15.56° C | 57% | 1009.3 hPa | 0 mm | - | 29 W/m² | - |
| 1777936239 | 15.56° C | 56% | 1009.2 hPa | 0 mm | - | 34 W/m² | - |
| 1777935936 | 15.56° C | 56% | 1009.2 hPa | 0 mm | - | 37 W/m² | - |
| 1777935635 | 16.11° C | 55% | 1009.4 hPa | 0 mm | - | 40 W/m² | - |
| 1777935332 | 16.11° C | 54% | 1009.3 hPa | 0 mm | - | 43 W/m² | - |
| 1777935029 | 16.11° C | 54% | 1009.2 hPa | 0 mm | - | 47 W/m² | - |
| 1777934725 | 16.67° C | 54% | 1009.2 hPa | 0 mm | - | 51 W/m² | - |
| 1777934423 | 16.67° C | 53% | 1009.2 hPa | 0 mm | - | 53 W/m² | - |
* Rain latest hour (hover to see other rain measurements)
** Current wind speed in m/s (hover to see current wind gust speed)